Tracking 26321 objects as of 27-Nov-2022
HD Live streaming from Space Station
objects crossing your sky now

COSMOS 1408 DEB

Track COSMOS 1408 DEB now!
10-day predictions


NORAD ID: 51338
Int'l Code: 1982-092BFF
Perigee: 445.9 km
Apogee: 547.0 km
Inclination: 82.6 °
Period: 94.4 minutes
Semi major axis: 6867 km
RCS: Unknown
Launch date: September 16, 1982
Source: Commonwealth of Independent States (former USSR) (CIS)
Launch site: PLESETSK MISSILE AND SPACE COMPLEX (PKMTR)

Note: This is SATELLITE DEBRIS
aabbcc
Your satellite tracking list
Your tracking list is empty




NASA's NSSDC Master Catalog

Two Line Element Set (TLE):
1 51338U 82092BFG 22330.84602287  .00036844  00000-0  13400-2 0  9993
2 51338  82.6184 117.3997 0073570 175.9371 184.2482 15.25495828 47136
Source of the keplerian elements: AFSPC